Location: *
(45.9500°N, 9.0833°E)
Time: 23:49:04
(UTC+00:00)

Tiros 1 despin weight - Pass Details

Date: 30 June 2021
Orbit: 593 x 642 km, 48.2° (Epoch: 02 August)

Event Time Altitude Azimuth Distance (km) Brightness Sun altitude
Rises 06:41:46 0° 288° (WNW) 2,832 ? 29.1°
Reaches altitude 10° 06:44:08 10° 281° (WNW) 1,925 ? 29.5°
Maximum altitude 06:48:16 40° 212° (SSW) 871 ? 30.2°
Drops below altitude 10° 06:52:23 10° 142° (SE) 1,919 ? 30.9°
Sets 06:54:46 0° 135° (SE) 2,821 ? 31.4°
